Springfield, MO

4:21 AM CST on January 18, 2018 (GMT -0600)
Springfield-Branson Regional

Weather History for KSGF - May, 2013

Change the Weather History Date:

Sunday, May 12, 2013

  Actual Average Record
Temperature  
Mean Temperature 51 °F 64 °F  
Max Temperature 65 °F 74 °F 90 °F (1963)
Min Temperature 36 °F 53 °F 36 °F (2013)
Degree Days  
Heating Degree Days 14 4  
Month to date heating degree days 132 55  
Since 1 July heating degree days 4484 4529  
Cooling Degree Days 0 2  
Month to date cooling degree days 6 19  
Year to date cooling degree days 23 44  
Moisture  
Dew Point 33 °F    
Average Humidity 56    
Maximum Humidity 85    
Minimum Humidity 26    
Precipitation  
Precipitation T in 0.18 in 2.40 in (1999)
Month to date precipitation 1.91 2.14  
Year to date precipitation 17.66 15.07  
Snow  
Snow 0.00 in - - ()
Month to date snowfall 1.4  
Since 1 July snowfall 12.7  
Snow Depth 0.00 in    
Sea Level Pressure  
Sea Level Pressure 30.22 in    
Wind  
Wind Speed 4 mph (WNW)    
Max Wind Speed 17 mph    
Max Gust Speed 22 mph    
Visibility 10 miles    
Events      
T = Trace of Precipitation, MM = Missing Value Source: NWS Daily Summary

Daily Weather History Graph

Daily Weather History Graph

Search for Another Location

Airport or City:

Trip Planner

Search our weather history database for the weather conditions in past years. The results will help you decide how hot, cold, wet, or windy it might be!

Date:

Astronomy

May. 12, 2013 Rise Set
Actual Time 6:07 AM CDT 8:13 PM CDT
Civil Twilight 5:38 AM CDT 8:41 PM CDT
Nautical Twilight 5:03 AM CDT 9:17 PM CDT
Astronomical Twilight 4:25 AM CDT 9:55 PM CDT
Moon 8:03 AM CDT (5/12) 10:39 PM CDT (5/12)
Length of Visible Light 15h 03m
Length of Day
14h 05m
Waxing Crescent, 7% of the Moon is Illuminated
May 12
Waxing Crescent
May 17
First Quarter
May 24
Full
May 31
Last Quarter
Jun 8
New

Hourly Weather History & Observations

Time (CDT) Temp. Windchill Dew Point Humidity Pressure Visibility Wind Dir Wind Speed Gust Speed Precip Events Conditions
12:52 AM 46.0 °F 43.9 °F 34.0 °F 63% 30.21 in 10.0 mi NW 4.6 mph - N/A   Clear
1:52 AM 46.0 °F 43.9 °F 34.0 °F 63% 30.22 in 10.0 mi North 4.6 mph - N/A   Clear
2:52 AM 42.1 °F 39.2 °F 35.1 °F 76% 30.22 in 10.0 mi NNW 4.6 mph - N/A   Clear
3:52 AM 42.1 °F - 33.1 °F 70% 30.22 in 10.0 mi Calm Calm - N/A   Clear
4:52 AM 37.0 °F - 32.0 °F 82% 30.24 in 10.0 mi Calm Calm - N/A   Clear
5:52 AM 37.9 °F - 32.0 °F 79% 30.23 in 10.0 mi Calm Calm - N/A   Clear
6:52 AM 37.9 °F 35.5 °F 33.1 °F 83% 30.25 in 10.0 mi SW 3.5 mph - N/A   Clear
7:52 AM 46.9 °F - 37.9 °F 71% 30.27 in 10.0 mi Calm Calm - N/A   Clear
8:52 AM 52.0 °F - 34.0 °F 50% 30.29 in 10.0 mi Calm Calm - N/A   Clear
9:52 AM 57.0 °F - 28.9 °F 34% 30.28 in 10.0 mi Calm Calm - N/A   Clear
10:52 AM 57.0 °F - 27.0 °F 32% 30.28 in 10.0 mi West 3.5 mph - N/A   Clear
11:52 AM 57.9 °F - 28.0 °F 32% 30.27 in 10.0 mi Calm Calm - N/A   Clear
12:52 PM 61.0 °F - 32.0 °F 34% 30.25 in 10.0 mi NNW 9.2 mph - N/A   Clear
1:52 PM 62.1 °F - 28.9 °F 29% 30.25 in 10.0 mi North 12.7 mph 16.1 mph N/A   Clear
2:52 PM 63.0 °F - 28.0 °F 27% 30.22 in 10.0 mi NW 11.5 mph 19.6 mph N/A   Clear
3:52 PM 64.0 °F - 28.9 °F 27% 30.19 in 10.0 mi Variable 6.9 mph 16.1 mph N/A   Clear
4:52 PM 64.9 °F - 30.9 °F 28% 30.19 in 10.0 mi NW 9.2 mph - N/A   Partly Cloudy
5:52 PM 64.0 °F - 30.0 °F 28% 30.18 in 10.0 mi Variable 3.5 mph - N/A   Scattered Clouds
6:52 PM 63.0 °F - 35.1 °F 35% 30.16 in 10.0 mi SW 3.5 mph - N/A   Mostly Cloudy
7:52 PM 61.0 °F - 34.0 °F 36% 30.17 in 10.0 mi West 5.8 mph - N/A   Mostly Cloudy
8:52 PM 59.0 °F - 39.0 °F 48% 30.17 in 10.0 mi NNW 3.5 mph - 0.00 in   Overcast
9:52 PM 55.9 °F - 39.9 °F 55% 30.18 in 10.0 mi Calm Calm - N/A   Mostly Cloudy
10:52 PM 50.0 °F - 42.1 °F 74% 30.19 in 10.0 mi SSW 3.5 mph - N/A   Scattered Clouds
11:52 PM 50.0 °F - 41.0 °F 71% 30.19 in 10.0 mi Calm Calm - N/A   Clear